Location: Unspecified
(0.0000°N, 0.0000°E)
Time: 04:40:33
(UTC+00:00)

Envisat - Pass Details

Date: 17 June 2019
Orbit: 764 x 766 km, 98.1° (Epoch: 26 June)

Event Time Altitude Azimuth Distance (km) Brightness Sun altitude
Rises 19:36:11 0° 192° (SSW) 3,231 6.1 -21.7°
Reaches altitude 10° 19:38:54 10° 205° (SSW) 2,302 5.5 -22.4°
Maximum altitude 19:42:53 24° 258° (WSW) 1,557 5.1 -23.3°
Drops below altitude 10° 19:46:53 10° 310° (NW) 2,294 6.5 -24.2°
Sets 19:49:35 0° 324° (NW) 3,217 7.2 -24.8°
